EW8486 Weather Reports


time (UTC)temp
F
wind
direction
speed
knots
gust
knots
rain 1hr
in
rain 24hr
in
rain mn
in
humidity
%
barometer
mb
20260504130515 54 0.0 1.7 0.00 0.00 0.00 60 1011.8
20260504110515 54 293 0.9 1.7 0.00 0.00 0.00 55 1012.0
20260504100517 56 0.0 2.6 0.00 0.00 0.00 53 1011.7
20260504080537 60 0 0.9 2.6 0.00 0.00 0.00 44 1011.4
20260504050515 72 293 1.7 6.1 0.00 0.00 0.00 26 1010.8
20260504045035 75 248 0.9 4.3 0.00 0.00 0.00 24 1010.6
20260504043515 75 293 1.7 4.3 0.00 0.00 0.00 23 1010.6
20260504042015 74 315 0.9 5.2 0.00 0.00 0.00 25 1010.3
20260504040515 74 270 1.7 3.5 0.00 0.00 0.00 25 1010.3
20260504035055 71 270 0.9 2.6 0.00 0.00 0.00 30 1010.1
20260504033515 71 338 0.9 2.6 0.00 0.00 0.00 29 1010.1
20260504032015 70 158 0.9 1.7 0.00 0.00 0.00 34 1010.0
20260504030515 71 0.0 1.7 0.00 0.00 0.00 32 1010.1
20260504025015 71 0.0 0.9 0.00 0.00 0.00 37 1009.9
20260504023516 72 158 0.9 3.5 0.00 0.00 0.00 35 1009.9
20260504022017 74 0.0 0.9 0.00 0.00 0.00 32 1009.8
20260504020517 74 248 0.9 2.6 0.00 0.00 0.00 33 1009.9
20260504015017 74 158 0.9 1.7 0.00 0.00 0.00 36 1009.9
20260504013517 76 0.0 0.9 0.00 0.00 0.00 33 1009.9
20260504012017 78 248 2.6 6.1 0.00 0.00 0.00 30 1010.1
20260504010517 78 158 1.7 3.5 0.00 0.00 0.00 30 1010.2
20260504005017 80 113 1.7 3.5 0.00 0.00 0.00 28 1010.5
20260504003517 80 90 0.9 2.6 0.00 0.00 0.00 26 1010.5
20260504002017 80 158 0.9 2.6 0.00 0.00 0.00 26 1010.8
20260504000517 79 180 2.6 4.3 0.00 0.00 0.00 27 1010.9
20260503235734 79 180 1.7 3.5 0.00 0.00 0.00 28 1011.1
20260503231036 82 90 1.7 4.3 0.00 0.00 0.00 24 1011.7
20260503225515 82 68 2.6 4.3 0.00 0.00 0.00 25 1012.0
20260503224015 81 90 3.5 8.7 0.00 0.00 0.00 24 1012.2
20260503222515 83 90 2.6 7.0 0.00 0.00 0.00 24 1012.4
20260503221015 81 113 2.6 5.2 0.00 0.00 0.00 24 1012.7
20260503215515 81 90 2.6 6.1 0.00 0.00 0.00 24 1012.9
20260503214015 80 68 0.9 5.2 0.00 0.00 0.00 26 1013.0
20260503212515 75 180 2.6 4.3 0.00 0.00 0.00 29 1013.1
20260503211037 76 158 1.7 3.5 0.00 0.00 0.00 29 1013.5
20260503205517 75 180 1.7 3.5 0.00 0.00 0.00 30 1013.6
20260503204017 72 158 1.7 3.5 0.00 0.00 0.00 31 1013.8
20260503202557 70 203 2.6 3.5 0.00 0.00 0.00 37 1014.0
20260503201017 71 180 2.6 4.3 0.00 0.00 0.00 40 1014.2
20260503195517 76 113 1.7 5.2 0.00 0.00 0.00 30 1014.7
20260503194017 74 45 2.6 7.8 0.00 0.00 0.00 31 1015.0
20260503192517 73 90 2.6 7.0 0.00 0.00 0.00 33 1015.3
20260503191017 72 68 1.7 6.1 0.00 0.00 0.00 35 1015.7
20260503185517 71 90 2.6 5.2 0.00 0.00 0.00 34 1015.9
20260503184017 71 23 2.6 5.2 0.00 0.00 0.00 35 1016.0
20260503182537 70 90 2.6 5.2 0.00 0.00 0.00 35 1016.2
20260503181017 67 180 1.7 4.3 0.00 0.00 0.00 39 1016.2
20260503175517 66 158 1.7 3.5 0.00 0.00 0.00 42 1016.4
20260503174016 65 180 2.6 4.3 0.00 0.00 0.00 43 1016.6
20260503172516 65 68 1.7 2.6 0.00 0.00 0.00 43 1016.9
20260503171017 64 45 2.6 7.0 0.00 0.00 0.00 44 1017.4